[[{"header":{"parameterUnit":"m.s-1","parameterCategory":2,"la1":30.2991,"la2":30.254,"lo1":-89.0895,"lo2":-89.0444,"dy":0.0017,"dx":0.0017,"nx":28,"ny":28,"refTime":"2025-11-30T09:00:00:Z","depth":"0","parameterNumber":2,"parameterNumberName":"U-component_of_CURRENTS"},"data":[0,0,0,0,0,0,0,0,0,0,0,0,0,0,0,0,0,0,0,0,0,0,0,0,0,0,0,0,0,0,0,0,0,0,0,0,0,0,0,0,0,0,0,0,0,0,0,0,0,0,0,0,0,0,0,0,0,0,0.4181,0.4182,0,0.4234,0.4234,0.4234,0.4224,0.4224,0.4223,0.4223,0.4228,0.4228,0.4229,0,0,0,0,0,0,0,0,0,0,0,0,0,0.4085,0.4086,0.4181,0.4182,0.4183,0.4234,0.4234,0.4234,0.4224,0.4224,0.4223,0.4222,0.4228,0.4228,0.4229,0,0,0,0,0,0,0,0,0,0,0,0,0,0.4127,0.4087,0.4181,0.4187,0.4189,0.4234,0.4234,0.4234,0.4225,0.4224,0.4223,0.4222,0.4227,0.4228,0.4229,0.4251,0,0,0.4232,0.4233,0,0,0,0,0,0,0,0,0.4125,0.413,0.4185,0.4187,0.4189,0.4225,0.4202,0.4239,0.4225,0.4206,0.4223,0.4222,0.4226,0.4227,0.4233,0.4252,0.4252,0.4232,0.4233,0.4233,0.4234,0,0,0,0,0,0,0,0.4122,0.4128,0.4197,0.4187,0.4189,0.4193,0.4197,0.4209,0.4216,0.4208,0.4208,0.4222,0.4226,0.4232,0.4233,0.4252,0.4232,0.4233,0.4234,0.4234,0.434,0.4342,0,0,0,0,0,0,0.4125,0.4125,0.4196,0.4199,0.4159,0.4196,0.42,0.4211,0.4217,0.4219,0.4222,0.4221,0.4231,0.4232,0.4233,0.4297,0.4233,0.4234,0.4235,0.4338,0.434,0.4343,0,0,0,0,0,0,0.4122,0.413,0.4194,0.4167,0.4176,0.4198,0.421,0.4213,0.4225,0.4229,0.4229,0.4234,0.4231,0.4232,0.4264,0.4296,0.4235,0.4235,0.4335,0.4338,0.4341,0.4401,0,0,0,0,0,0,0.4119,0.4129,0.4136,0.4167,0.4178,0.423,0.4212,0.4214,0.4236,0.4235,0.4239,0.4238,0.423,0.4263,0.4265,0.4296,0.4236,0.4332,0.4336,0.434,0.4396,0.4406,0.4414,0,0,0,0,0,0.4115,0.413,0.4136,0.4145,0.4187,0.4232,0.4237,0.4247,0.4238,0.4253,0.4261,0.4238,0.4291,0.4265,0.4267,0.4299,0.433,0.4335,0.434,0.4392,0.4404,0.4414,0,0,0,0,0,0,0.4086,0.4132,0.4139,0.4165,0.4201,0.4232,0.4249,0.4256,0.4274,0.4272,0.4264,0.4266,0.4309,0.4301,0.4273,0.4345,0.4308,0.4314,0.4347,0.4358,0.4367,0.4377,0.4237,0,0,0,0,0,0.4087,0.4113,0.4155,0.4177,0.4198,0.4225,0.4243,0.4255,0.4278,0.4285,0.429,0.4304,0.4333,0.434,0.4361,0.4395,0.4412,0.442,0.4429,0.4436,0.4449,0.4511,0.4527,0.4359,0.4359,0.4359,0,0,0.408,0.4112,0.4123,0.4174,0.42,0.4239,0.4233,0.4271,0.4304,0.4284,0.4323,0.4338,0.4352,0.4397,0.4415,0.439,0.4496,0.4443,0.4449,0.4457,0.4518,0.4534,0.4549,0.4363,0.4362,0.4361,0,0,0.4086,0.4112,0.4136,0.4176,0.423,0.4253,0.4268,0.431,0.4329,0.4372,0.4376,0.4414,0.4439,0.4466,0.448,0.4554,0.4547,0.4557,0.4603,0.4663,0.4677,0.469,0.4741,0.4758,0.4554,0.4554,0.4554,0,0.4073,0.4114,0.415,0.4193,0.4228,0.4262,0.43,0.4334,0.438,0.4409,0.4391,0.4473,0.4477,0.4552,0.4576,0.4574,0.4603,0.4555,0.4674,0.4687,0.4699,0.4749,0.4766,0.4558,0.4557,0.4557,0.4557,0,0.4102,0.414,0.4163,0.4227,0.4269,0.4311,0.4369,0.441,0.4433,0.4467,0.4544,0.4565,0.4612,0.4624,0.4618,0.4712,0.4705,0.4682,0.4643,0.4719,0.4767,0.4784,0.4563,0.4562,0.456,0.456,0,0,0.4052,0.4159,0.4166,0.4201,0.4292,0.4324,0.4401,0.4475,0.4535,0.4574,0.4652,0.47,0.4716,0.4736,0.4745,0.4793,0.4897,0.4773,0.4775,0.4817,0.5035,0.502,0.5037,0.4895,0.4898,0.49,0.5037,0,0.4058,0.4129,0.4191,0.4258,0.4297,0.4373,0.4443,0.452,0.4589,0.4675,0.4722,0.4795,0.4759,0.4795,0.4839,0.4894,0.4945,0.4862,0.4961,0.4964,0.4935,0.5057,0.4942,0.5054,0.5054,0.5057,0.5059,0,0.4055,0.4109,0.4168,0.4278,0.4304,0.4351,0.4473,0.4546,0.4686,0.4754,0.4841,0.4883,0.4978,0.4929,0.5052,0.5003,0.5026,0.5053,0.5059,0.5036,0.4982,0.4977,0.5085,0.5002,0.5085,0.5083,0.5081,0,0.398,0.4088,0.4129,0.4167,0.4296,0.434,0.4411,0.4553,0.4644,0.481,0.4892,0.5003,0.5073,0.5126,0.5176,0.5126,0.5311,0.5244,0.5253,0.5251,0.517,0.5156,0.5202,0.5333,0.5333,0.5333,0.5332,0,0.3952,0.3985,0.4092,0.4116,0.4185,0.4289,0.4388,0.4502,0.4676,0.4783,0.4913,0.5023,0.5127,0.5231,0.5244,0.5326,0.5367,0.5301,0.5303,0.5188,0.5174,0.5109,0.5057,0.5338,0.5337,0.5336,0.5335,0,0.3859,0.3931,0.3985,0.4107,0.4148,0.419,0.4365,0.444,0.4628,0.4778,0.4835,0.5074,0.5224,0.5319,0.5447,0.5423,0.5369,0.5499,0.536,0.5343,0.5236,0.5191,0.5023,0.4868,0.553,0.5531,0.5532,0,0.3818,0.3833,0.3949,0.3973,0.4024,0.4113,0.4177,0.4389,0.4488,0.4786,0.4847,0.5084,0.5232,0.5458,0.5506,0.5586,0.5399,0.5484,0.536,0.5257,0.5209,0.4956,0.4818,0.5278,0.5276,0.5275,0.5274,0,0.3737,0.3772,0.3815,0.3874,0.3926,0.3997,0.4109,0.4194,0.443,0.4591,0.4815,0.4977,0.5261,0.5352,0.5502,0.5513,0.526,0.5459,0.5392,0.5068,0.4756,0.4598,0.5157,0.5263,0.5264,0.5265,0.5265,0.5266,0.3661,0.3666,0.3716,0.3757,0.3813,0.3849,0.3859,0.4008,0.4161,0.4358,0.4633,0.4829,0.5141,0.5371,0.5349,0.531,0.5192,0.5181,0.5156,0.4922,0.4704,0.5245,0.5322,0.5324,0.5325,0.5326,0.5327,0,0.355,0.3565,0.3598,0.3632,0.3619,0.3699,0.3782,0.3771,0.3864,0.4141,0.4336,0.468,0.4873,0.5068,0.5212,0.5057,0.4767,0.4926,0.4557,0.4447,0.5003,0.4927,0.4873,0.4873,0.4874,0.4874,0.4874,0.4874,0.3491,0.3463,0.3478,0.3419,0.3431,0.3365,0.3361,0.3397,0.355,0.3747,0.3957,0.4208,0.473,0.5087,0.5055,0.4911,0.4501,0.4323,0.4242,0.4701,0.4721,0.474,0.4658,0.4548,0.4548,0.3504,0.3497,0.3491]},{"header":{"parameterUnit":"m.s-1","parameterCategory":2,"la1":30.2991,"la2":30.254,"lo1":-89.0895,"lo2":-89.0444,"dy":0.0017,"dx":0.0017,"nx":28,"ny":28,"refTime":"2025-11-30T09:00:00:Z","depth":"0","parameterNumber":3,"parameterNumberName":"V-component_of_CURRENTS"},"data":[0,0,0,0,0,0,0,0,0,0,0,0,0,0,0,0,0,0,0,0,0,0,0,0,0,0,0,0,0,0,0,0,0,0,0,0,0,0,0,0,0,0,0,0,0,0,0,0,0,0,0,0,0,0,0,0,0,0,0.0091,0.009,0,0.0005,0.0004,0.0002,-0.0061,-0.0061,-0.0062,-0.0062,-0.0194,-0.0197,-0.02,0,0,0,0,0,0,0,0,0,0,0,0,0,0.0119,0.0119,0.0091,0.009,0.0089,0.0005,0.0004,0.0002,-0.0061,-0.0061,-0.0062,-0.0062,-0.0193,-0.0197,-0.02,0,0,0,0,0,0,0,0,0,0,0,0,0,0.0075,0.0119,0.0091,0.005,0.0045,0.0005,0.0004,0.0002,-0.0061,-0.0061,-0.0062,-0.0062,-0.0191,-0.0196,-0.0201,-0.0222,0,0,-0.0216,-0.0218,0,0,0,0,0,0,0,0,0.0077,0.0073,0.0057,0.0053,0.0048,-0.0015,-0.0035,-0.0074,-0.0061,-0.0023,-0.0062,-0.0062,-0.0136,-0.0146,-0.0164,-0.0228,-0.0234,-0.0216,-0.0219,-0.0221,-0.0223,0,0,0,0,0,0,0,0.0081,0.0076,0.0054,0.0056,0.005,0.0007,0.0001,-0.0043,-0.0079,-0.0027,-0.0031,-0.0036,-0.014,-0.0159,-0.0168,-0.0236,-0.0216,-0.022,-0.0223,-0.0225,-0.0321,-0.032,0,0,0,0,0,0,0.0102,0.008,0.0057,0.0052,0.0065,0.0008,0.0001,0.0003,-0.0078,-0.009,-0.0035,-0.0038,-0.0151,-0.0162,-0.0173,-0.0179,-0.0221,-0.0226,-0.0229,-0.0321,-0.0321,-0.032,0,0,0,0,0,0,0.0103,0.0101,0.006,0.0065,0.0058,0.0009,0.0011,0.0002,-0.0013,-0.0084,-0.0097,-0.0039,-0.0152,-0.0166,-0.0202,-0.0186,-0.0228,-0.0232,-0.0322,-0.0321,-0.0321,-0.0208,0,0,0,0,0,0,0.0104,0.0102,0.0109,0.0067,0.0058,0.0052,0.0012,0.0,-0.0015,-0.002,-0.0091,-0.0104,-0.0153,-0.0194,-0.0206,-0.0193,-0.0236,-0.0322,-0.0321,-0.0321,-0.0212,-0.0204,-0.0196,0,0,0,0,0,0.0105,0.0128,0.011,0.0107,0.007,0.0053,0.0045,0.0005,-0.0014,-0.0012,-0.0061,-0.0102,-0.0199,-0.0197,-0.0212,-0.02,-0.0322,-0.0322,-0.0321,-0.0216,-0.0205,-0.0196,0,0,0,0,0,0,0.0144,0.0122,0.0102,0.0116,0.0091,0.0044,0.0043,0.0015,-0.0023,-0.0027,-0.0097,-0.0113,-0.014,-0.0186,-0.0183,-0.0227,-0.0268,-0.027,-0.0183,-0.0174,-0.0166,-0.0137,-0.024,0,0,0,0,0,0.0157,0.0165,0.0133,0.0142,0.0135,0.0089,0.0077,0.0053,0.0015,-0.0002,-0.0051,-0.0105,-0.0149,-0.0172,-0.022,-0.0241,-0.0288,-0.0245,-0.0237,-0.023,-0.0217,-0.0277,-0.0273,-0.0318,-0.0318,-0.0318,0,0,0.0173,0.0162,0.0166,0.015,0.0126,0.0135,0.0081,0.0074,0.0078,-0.001,-0.0022,-0.008,-0.015,-0.0174,-0.019,-0.0209,-0.024,-0.0229,-0.0222,-0.0213,-0.0276,-0.0272,-0.0268,-0.0317,-0.0317,-0.0317,0,0,0.0221,0.0203,0.0229,0.0217,0.0196,0.0171,0.0176,0.0137,0.0117,0.0095,0.0035,-0.0009,-0.0077,-0.012,-0.0152,-0.013,-0.0197,-0.0148,-0.0083,-0.0141,-0.0137,-0.0135,-0.0178,-0.0181,-0.0142,-0.0142,-0.0142,0,0.0242,0.0271,0.0233,0.0255,0.0259,0.0197,0.023,0.02,0.0154,0.0145,0.0108,0.0012,-0.005,-0.0077,-0.0072,-0.011,-0.0151,-0.0109,-0.0129,-0.0127,-0.0127,-0.0172,-0.0176,-0.0137,-0.0137,-0.0138,-0.0138,0,0.0309,0.033,0.0346,0.0356,0.0353,0.0369,0.0333,0.0321,0.0284,0.025,0.0211,0.012,0.0067,0.0035,-0.0014,-0.0035,-0.0067,-0.0111,-0.0146,-0.0115,-0.0166,-0.0172,-0.0129,-0.0131,-0.0132,-0.0134,0,0,0.0365,0.0391,0.0396,0.0426,0.0411,0.0423,0.0427,0.0421,0.0437,0.036,0.0366,0.0269,0.0215,0.0175,0.01,0.0044,0.0008,-0.0022,-0.0027,-0.0052,-0.011,-0.0131,-0.0141,-0.004,-0.004,-0.0041,-0.0143,0,0.0431,0.0505,0.0494,0.0563,0.0602,0.0558,0.0569,0.055,0.0518,0.0504,0.0397,0.0369,0.027,0.0248,0.0175,0.0054,-0.0004,0.0041,-0.0148,-0.0153,-0.0165,-0.0147,-0.0119,-0.0207,-0.0149,-0.015,-0.0151,0,0.0504,0.0548,0.063,0.068,0.0693,0.0714,0.0737,0.0747,0.0701,0.0675,0.0617,0.0531,0.0444,0.0349,0.0157,0.0191,0.0056,-0.0051,-0.0058,-0.012,-0.0185,-0.0234,-0.0222,-0.0462,-0.0162,-0.0161,-0.016,0,0.0575,0.0646,0.072,0.0736,0.0772,0.0796,0.0813,0.0797,0.0837,0.0792,0.0805,0.0668,0.0617,0.0425,0.0202,0.018,-0.0014,-0.0076,-0.0223,-0.0226,-0.026,-0.0264,-0.0491,-0.0213,-0.0213,-0.0212,-0.0212,0,0.0655,0.0715,0.076,0.0799,0.0894,0.0883,0.0973,0.0965,0.0981,0.1047,0.0905,0.092,0.0633,0.0484,0.0256,0.0011,0.0024,-0.0202,-0.0253,-0.0219,-0.0219,-0.0477,-0.0639,-0.0216,-0.0215,-0.0215,-0.0214,0,0.0722,0.0745,0.0841,0.0901,0.0932,0.1,0.11,0.1165,0.1157,0.1238,0.1232,0.1115,0.0927,0.0631,0.0329,0.0106,-0.0292,-0.0237,-0.0169,-0.021,-0.0574,-0.073,-0.1037,-0.1146,-0.0414,-0.0416,-0.0417,0,0.0763,0.0819,0.0928,0.0999,0.1031,0.1136,0.1211,0.1251,0.1344,0.1371,0.1426,0.1272,0.1211,0.0763,0.0333,-0.0065,-0.0323,-0.0314,-0.0362,-0.0584,-0.0796,-0.0911,-0.0987,-0.0364,-0.0364,-0.0365,-0.0365,0,0.0847,0.0878,0.0958,0.1109,0.1207,0.1341,0.146,0.1565,0.1619,0.1694,0.1768,0.1722,0.1294,0.0927,0.0363,0.0057,-0.0495,-0.0334,-0.0591,-0.0794,-0.091,-0.1038,-0.0304,-0.0368,-0.0368,-0.0367,-0.0367,-0.0367,0.0906,0.098,0.1086,0.1233,0.1355,0.1524,0.166,0.1805,0.1977,0.212,0.2053,0.2072,0.1491,0.0742,0.0282,-0.0513,-0.0545,-0.0735,-0.0908,-0.1005,-0.1109,-0.037,-0.0476,-0.0476,-0.0477,-0.0477,-0.0477,0,0.0984,0.1071,0.1208,0.1381,0.1533,0.1586,0.1813,0.197,0.2201,0.2355,0.244,0.2215,0.1489,0.0726,-0.0348,-0.0938,-0.1171,-0.1281,-0.1447,-0.15,-0.0857,-0.085,-0.1009,-0.1009,-0.1008,-0.1008,-0.1008,-0.1008,0.1024,0.1163,0.1237,0.1496,0.1628,0.1853,0.1996,0.2236,0.2425,0.266,0.2737,0.2744,0.2186,0.018,-0.1147,-0.1483,-0.1915,-0.2043,-0.2247,-0.1819,-0.1781,-0.1744,-0.1775,-0.2124,-0.2126,-0.2777,-0.2784,-0.2789]}],[{"header":{"parameterUnit":"m.s-1","parameterCategory":2,"la1":30.2991,"la2":30.254,"lo1":-89.0895,"lo2":-89.0444,"dy":0.0017,"dx":0.0017,"nx":28,"ny":28,"refTime":"2025-11-30T09:00:00:Z","depth":"2","parameterNumber":2,"parameterNumberName":"U-component_of_CURRENTS"},"data":[0,0,0,0,0,0,0,0,0,0,0,0,0,0,0,0,0,0,0,0,0,0,0,0,0,0,0,0,0,0,0,0,0,0,0,0,0,0,0,0,0,0,0,0,0,0,0,0,0,0,0,0,0,0,0,0,0,0,0.3746,0.3747,0,0.3799,0.38,0.38,0.3803,0.3803,0.3803,0.3802,0.3817,0.3818,0.3818,0,0,0,0,0,0,0,0,0,0,0,0,0,0.365,0.3652,0.3746,0.3747,0.3748,0.3799,0.38,0.38,0.3803,0.3803,0.3802,0.3802,0.3817,0.3818,0.3818,0,0,0,0,0,0,0,0,0,0,0,0,0,0.3692,0.3652,0.3746,0.3759,0.3761,0.3799,0.38,0.38,0.3803,0.3803,0.3802,0.3802,0.3817,0.3818,0.3818,0.383,0,0,0.3821,0.3822,0,0,0,0,0,0,0,0,0.369,0.3695,0.3756,0.3758,0.3761,0.3798,0.3772,0.381,0.3803,0.3782,0.3802,0.3802,0.381,0.3812,0.3817,0.3831,0.3831,0.3821,0.3822,0.3822,0.3822,0,0,0,0,0,0,0,0.3687,0.3693,0.3763,0.3757,0.376,0.3764,0.3769,0.3779,0.3793,0.3784,0.3786,0.3799,0.3811,0.3816,0.3817,0.3831,0.3821,0.3822,0.3823,0.3823,0.3926,0.3929,0,0,0,0,0,0,0.369,0.3691,0.3761,0.3765,0.3729,0.3766,0.3772,0.3783,0.3794,0.3797,0.3799,0.3799,0.3814,0.3816,0.3818,0.3888,0.3822,0.3823,0.3823,0.3924,0.3927,0.3929,0,0,0,0,0,0,0.3688,0.3696,0.3759,0.3732,0.3741,0.3769,0.3781,0.3784,0.3804,0.3807,0.3808,0.3818,0.3814,0.3816,0.385,0.3886,0.3823,0.3824,0.3922,0.3925,0.3928,0.3993,0,0,0,0,0,0,0.3685,0.3694,0.3706,0.3733,0.3743,0.3795,0.3782,0.3785,0.3814,0.3815,0.3823,0.3823,0.3814,0.3849,0.3851,0.3886,0.3825,0.3919,0.3923,0.3927,0.3988,0.3998,0.4007,0,0,0,0,0,0.3681,0.3697,0.3706,0.3715,0.3757,0.3797,0.3803,0.3818,0.3816,0.3832,0.3844,0.3824,0.3877,0.3851,0.3853,0.389,0.3917,0.3922,0.3927,0.3984,0.3996,0.4006,0,0,0,0,0,0,0.3657,0.37,0.371,0.3737,0.3773,0.38,0.382,0.383,0.3852,0.3856,0.3848,0.385,0.3898,0.3888,0.386,0.3935,0.3896,0.3901,0.3939,0.395,0.3959,0.3971,0.3826,0,0,0,0,0,0.366,0.3687,0.3726,0.375,0.3771,0.3799,0.3818,0.3833,0.3857,0.3867,0.3875,0.3891,0.3919,0.3928,0.3948,0.3981,0.3996,0.401,0.4019,0.4027,0.404,0.4096,0.4111,0.3946,0.3946,0.3946,0,0,0.3656,0.3687,0.37,0.3749,0.3776,0.3812,0.3809,0.3851,0.3884,0.3865,0.391,0.3926,0.3938,0.3983,0.4003,0.3978,0.4085,0.4033,0.4039,0.4049,0.4103,0.4119,0.4133,0.3949,0.3949,0.3948,0,0,0.3665,0.3694,0.3719,0.3756,0.381,0.3833,0.385,0.3892,0.3915,0.396,0.3966,0.4006,0.4032,0.4057,0.4069,0.4143,0.4137,0.415,0.42,0.4254,0.4268,0.428,0.4329,0.4345,0.4148,0.4148,0.4149,0,0.3659,0.3698,0.3733,0.3773,0.3807,0.3845,0.3882,0.3917,0.3964,0.3995,0.3984,0.4065,0.407,0.414,0.4168,0.4164,0.4193,0.4151,0.4266,0.4278,0.429,0.4336,0.4353,0.4152,0.4152,0.4151,0.4151,0,0.3686,0.3725,0.3748,0.381,0.385,0.3893,0.3949,0.3994,0.4023,0.4057,0.4137,0.4158,0.4205,0.4219,0.4214,0.4306,0.43,0.4275,0.4233,0.431,0.4354,0.4371,0.4158,0.4156,0.4155,0.4154,0,0,0.3647,0.3746,0.3754,0.3788,0.3876,0.3906,0.3983,0.4056,0.4116,0.4162,0.4237,0.429,0.4311,0.4329,0.434,0.4385,0.4489,0.4369,0.437,0.4411,0.4619,0.4588,0.4602,0.4485,0.4488,0.4491,0.462,0,0.3656,0.3722,0.3779,0.3845,0.3883,0.3957,0.4025,0.4101,0.417,0.4254,0.4303,0.4378,0.4351,0.4392,0.4435,0.4486,0.4535,0.4457,0.4544,0.4547,0.4504,0.4621,0.4279,0.4363,0.4635,0.4638,0.464,0,0.3656,0.3706,0.3765,0.3867,0.3893,0.3941,0.4061,0.4131,0.4264,0.4332,0.4419,0.4464,0.4561,0.4518,0.4638,0.4593,0.4617,0.464,0.4645,0.4605,0.4547,0.433,0.4382,0.4667,0.4665,0.4663,0.4661,0,0.359,0.3692,0.3735,0.3769,0.3891,0.3938,0.4008,0.4144,0.4231,0.439,0.4473,0.458,0.4655,0.4705,0.4758,0.4712,0.4885,0.4818,0.4811,0.4809,0.4529,0.4498,0.4902,0.4902,0.4902,0.4902,0.4901,0,0.3567,0.3602,0.3705,0.3729,0.3801,0.3897,0.3996,0.4105,0.4269,0.4371,0.45,0.4604,0.4709,0.4809,0.4821,0.489,0.4937,0.4857,0.4855,0.4544,0.4514,0.4775,0.4758,0.4906,0.4905,0.4904,0.4904,0,0.3485,0.3554,0.3607,0.3726,0.3769,0.3814,0.3982,0.4052,0.4236,0.4379,0.4438,0.4662,0.4804,0.4896,0.5011,0.4981,0.5037,0.5038,0.4677,0.463,0.4903,0.4889,0.5047,0.5048,0.5048,0.5048,0.5048,0,0.3448,0.3466,0.358,0.3606,0.3658,0.3748,0.3811,0.4012,0.4103,0.4389,0.4446,0.4674,0.48,0.4999,0.5013,0.5073,0.5092,0.4759,0.4606,0.4945,0.4926,0.4911,0.4896,0.4257,0.4251,0.4246,0.4242,0,0.3375,0.3413,0.3454,0.3517,0.3572,0.3638,0.3749,0.3828,0.4051,0.4202,0.4406,0.4547,0.4783,0.4729,0.4847,0.4811,0.4724,0.4659,0.5116,0.4288,0.4214,0.4192,0.42,0.4196,0.4201,0.4204,0.4206,0.4208,0.3308,0.3313,0.3364,0.3409,0.3467,0.3499,0.3507,0.3646,0.3783,0.3955,0.4201,0.4296,0.4426,0.4453,0.4361,0.4292,0.4596,0.4364,0.4373,0.4389,0.4289,0.4221,0.4185,0.419,0.4193,0.4197,0.42,0,0.3206,0.3221,0.3254,0.3289,0.3277,0.3361,0.3435,0.3409,0.3487,0.3702,0.3859,0.3672,0.3721,0.3813,0.3679,0.3734,0.3622,0.3552,0.3353,0.3408,0.3454,0.3296,0.2934,0.2929,0.2924,0.292,0,0,0.315,0.3124,0.3136,0.3081,0.31,0.3037,0.3032,0.304,0.3141,0.3169,0.3217,0.355,0.3742,0.3267,0.326,0.306,0.3181,0.2949,0.3987,0.381,0.3848,0.398,0.381,0,0,0,0,0]},{"header":{"parameterUnit":"m.s-1","parameterCategory":2,"la1":30.2991,"la2":30.254,"lo1":-89.0895,"lo2":-89.0444,"dy":0.0017,"dx":0.0017,"nx":28,"ny":28,"refTime":"2025-11-30T09:00:00:Z","depth":"2","parameterNumber":3,"parameterNumberName":"V-component_of_CURRENTS"},"data":[0,0,0,0,0,0,0,0,0,0,0,0,0,0,0,0,0,0,0,0,0,0,0,0,0,0,0,0,0,0,0,0,0,0,0,0,0,0,0,0,0,0,0,0,0,0,0,0,0,0,0,0,0,0,0,0,0,0,0.0138,0.0137,0,0.0055,0.0054,0.0052,-0.0007,-0.0008,-0.0008,-0.0008,-0.0131,-0.0134,-0.0137,0,0,0,0,0,0,0,0,0,0,0,0,0,0.0166,0.0166,0.0138,0.0137,0.0136,0.0055,0.0054,0.0052,-0.0007,-0.0008,-0.0008,-0.0008,-0.013,-0.0134,-0.0137,0,0,0,0,0,0,0,0,0,0,0,0,0,0.0123,0.0166,0.0138,0.0098,0.0094,0.0055,0.0053,0.0052,-0.0007,-0.0008,-0.0008,-0.0008,-0.0129,-0.0133,-0.0138,-0.0158,0,0,-0.0152,-0.0154,0,0,0,0,0,0,0,0,0.0126,0.0122,0.0105,0.0101,0.0096,0.0036,0.0018,-0.002,-0.0007,0.0029,-0.0008,-0.0009,-0.0077,-0.0086,-0.0104,-0.0164,-0.0169,-0.0152,-0.0155,-0.0157,-0.0158,0,0,0,0,0,0,0,0.0129,0.0125,0.0102,0.0104,0.0099,0.0058,0.0052,0.001,-0.0024,0.0025,0.0021,0.0016,-0.008,-0.0099,-0.0107,-0.0171,-0.0152,-0.0156,-0.0159,-0.0161,-0.0251,-0.0251,0,0,0,0,0,0,0.0149,0.0128,0.0105,0.01,0.0113,0.0059,0.0051,0.0054,-0.0023,-0.0034,0.0017,0.0014,-0.0091,-0.0102,-0.0112,-0.0119,-0.0157,-0.0161,-0.0164,-0.0252,-0.0251,-0.0251,0,0,0,0,0,0,0.015,0.0148,0.0108,0.0113,0.0106,0.0059,0.0061,0.0052,0.0037,-0.0028,-0.004,0.0013,-0.0092,-0.0105,-0.0139,-0.0125,-0.0163,-0.0167,-0.0252,-0.0252,-0.0251,-0.0146,0,0,0,0,0,0,0.0151,0.0149,0.0155,0.0115,0.0106,0.0099,0.0062,0.0051,0.0036,0.0031,-0.0036,-0.0048,-0.0093,-0.0131,-0.0143,-0.0132,-0.0171,-0.0252,-0.0252,-0.0251,-0.015,-0.0142,-0.0136,0,0,0,0,0,0.0152,0.0173,0.0156,0.0153,0.0118,0.01,0.0092,0.0055,0.0037,0.0038,-0.0008,-0.0046,-0.0136,-0.0135,-0.0149,-0.0138,-0.0253,-0.0252,-0.0251,-0.0153,-0.0144,-0.0136,0,0,0,0,0,0,0.0189,0.0168,0.0149,0.0161,0.0137,0.0092,0.0091,0.0064,0.0028,0.0024,-0.0041,-0.0056,-0.0082,-0.0125,-0.0122,-0.0164,-0.0201,-0.0203,-0.0122,-0.0114,-0.0107,-0.008,-0.0175,0,0,0,0,0,0.0201,0.0209,0.0177,0.0185,0.0179,0.0135,0.0122,0.01,0.0064,0.0047,0.0001,-0.005,-0.0091,-0.0112,-0.0157,-0.0177,-0.0223,-0.0181,-0.0174,-0.0167,-0.0156,-0.0216,-0.0213,-0.0249,-0.0249,-0.0249,0,0,0.0217,0.0206,0.0209,0.0193,0.017,0.0177,0.0126,0.0119,0.0122,0.004,0.0028,-0.0026,-0.0092,-0.0114,-0.013,-0.0147,-0.0181,-0.0166,-0.016,-0.0152,-0.0215,-0.0211,-0.0208,-0.0248,-0.0248,-0.0248,0,0,0.0262,0.0244,0.0269,0.0256,0.0236,0.0211,0.0216,0.0178,0.0158,0.0137,0.008,0.0039,-0.0025,-0.0065,-0.0095,-0.0075,-0.0141,-0.0092,-0.0032,-0.009,-0.0088,-0.0086,-0.0131,-0.0135,-0.0087,-0.0087,-0.0087,0,0.0281,0.0308,0.0272,0.0292,0.0294,0.0236,0.0266,0.0237,0.0192,0.0184,0.0149,0.0057,0.0,-0.0027,-0.0022,-0.0057,-0.0099,-0.0056,-0.0079,-0.0078,-0.0078,-0.0126,-0.0131,-0.0082,-0.0082,-0.0083,-0.0083,0,0.0343,0.0363,0.0377,0.0386,0.0382,0.0397,0.0362,0.035,0.0314,0.0282,0.0243,0.0157,0.0107,0.0077,0.0032,0.0009,-0.0023,-0.0062,-0.0095,-0.0068,-0.0121,-0.0127,-0.0074,-0.0076,-0.0078,-0.0079,0,0,0.0395,0.0419,0.0424,0.0452,0.0437,0.0448,0.0451,0.0443,0.0457,0.0383,0.0386,0.0296,0.0243,0.0205,0.0136,0.0081,0.0041,0.0019,0.0013,-0.0014,-0.0079,-0.0104,-0.0114,-0.0003,-0.0004,-0.0005,-0.0112,0,0.0456,0.0526,0.0515,0.058,0.0616,0.0574,0.0584,0.0564,0.0533,0.0517,0.0414,0.0386,0.0294,0.0273,0.0202,0.0085,0.0027,0.0075,-0.0112,-0.0117,-0.0133,-0.0122,-0.0088,-0.0181,-0.012,-0.0121,-0.0122,0,0.0525,0.0565,0.0642,0.069,0.0701,0.0722,0.0742,0.075,0.0703,0.0675,0.0618,0.0536,0.0449,0.0363,0.0175,0.021,0.008,-0.0023,-0.003,-0.0093,-0.0154,-0.0203,-0.0197,-0.0134,-0.0133,-0.0132,-0.0131,0,0.0591,0.0657,0.0727,0.0741,0.0776,0.0798,0.0814,0.0796,0.0832,0.0783,0.0794,0.0659,0.0608,0.0424,0.0209,0.0192,-0.0003,-0.0057,-0.0204,-0.0207,-0.0234,-0.0239,-0.0192,-0.0192,-0.0192,-0.0191,-0.0191,0,0.0665,0.0722,0.0765,0.0802,0.0893,0.0881,0.0964,0.0955,0.0966,0.1024,0.0887,0.0895,0.062,0.0473,0.0256,0.0016,0.0029,-0.0187,-0.0236,-0.0197,-0.0196,-0.0203,-0.0203,-0.0196,-0.0195,-0.0194,-0.0193,0,0.0729,0.075,0.0841,0.0898,0.0928,0.0992,0.1085,0.1144,0.1133,0.1204,0.1197,0.1075,0.0885,0.0604,0.0309,0.0098,-0.0143,-0.0235,-0.0163,-0.0202,-0.0322,-0.0315,-0.0409,-0.0411,-0.0413,-0.0414,-0.0415,0,0.0767,0.0819,0.0923,0.099,0.1022,0.112,0.1191,0.1225,0.131,0.1325,0.1374,0.1215,0.114,0.0699,0.0293,-0.0089,-0.0142,-0.0317,-0.0354,-0.0306,-0.0345,-0.0335,-0.0327,-0.035,-0.0351,-0.0351,-0.0351,0,0.0846,0.0875,0.0951,0.1095,0.1188,0.1314,0.1425,0.1521,0.1566,0.1626,0.1676,0.1616,0.1197,0.0823,0.0285,0.0015,-0.0257,-0.0337,-0.031,-0.0294,-0.0257,-0.0293,-0.0285,-0.0354,-0.0354,-0.0354,-0.0354,-0.0354,0.0901,0.0971,0.1071,0.1211,0.1327,0.1485,0.161,0.1738,0.1887,0.1992,0.1917,0.185,0.1392,0.0732,0.0242,-0.0282,-0.0259,-0.0439,-0.0435,-0.0431,-0.0398,-0.0366,-0.0477,-0.0477,-0.0477,-0.0478,-0.0478,0,0.0974,0.1056,0.1185,0.1349,0.1491,0.1545,0.1754,0.1886,0.208,0.2165,0.2211,0.1798,0.1359,0.0828,0.0064,-0.0392,-0.0438,-0.0545,-0.049,-0.0483,-0.0478,-0.0447,-0.0539,-0.0541,-0.0542,-0.0544,0,0,0.1011,0.1141,0.121,0.1453,0.158,0.1789,0.192,0.2112,0.2238,0.2338,0.2312,0.2212,0.1559,0.1005,0.0365,-0.0078,-0.0178,-0.018,-0.0081,0.0067,0.0078,-0.0369,-0.0307,0,0,0,0,0]}],[{"header":{"parameterUnit":"m.s-1","parameterCategory":2,"la1":30.2991,"la2":30.254,"lo1":-89.0895,"lo2":-89.0444,"dy":0.0017,"dx":0.0017,"nx":28,"ny":28,"refTime":"2025-11-30T09:00:00:Z","depth":"4","parameterNumber":2,"parameterNumberName":"U-component_of_CURRENTS"},"data":[0,0,0,0,0,0,0,0,0,0,0,0,0,0,0,0,0,0,0,0,0,0,0,0,0,0,0,0,0,0,0,0,0,0,0,0,0,0,0,0,0,0,0,0,0,0,0,0,0,0,0,0,0,0,0,0,0,0,0.2479,0.248,0,0.2579,0.258,0.2581,0.2661,0.2662,0.2663,0.2664,0.2772,0.2774,0.2775,0,0,0,0,0,0,0,0,0,0,0,0,0,0.2342,0.2344,0.2479,0.248,0.2482,0.2579,0.258,0.2581,0.2661,0.2662,0.2664,0.2665,0.2771,0.2773,0.2776,0,0,0,0,0,0,0,0,0,0,0,0,0,0.2415,0.2345,0.2478,0.2536,0.2542,0.2579,0.258,0.2582,0.2661,0.2662,0.2664,0.2666,0.2771,0.2773,0.2776,0.2759,0,0,0.2784,0.2785,0,0,0,0,0,0,0,0,0.2411,0.2419,0.2526,0.2532,0.2539,0.2612,0.2572,0.2643,0.266,0.2612,0.2665,0.2666,0.272,0.2727,0.2737,0.2764,0.2769,0.2784,0.2786,0.2787,0.2788,0,0,0,0,0,0,0,0.2406,0.2415,0.2515,0.2527,0.2536,0.2552,0.2564,0.2585,0.2653,0.2616,0.2623,0.2639,0.2724,0.2734,0.2741,0.2771,0.2784,0.2787,0.2789,0.279,0.2952,0.2955,0,0,0,0,0,0,0.2399,0.2411,0.2512,0.2518,0.2482,0.2554,0.2567,0.2584,0.2653,0.2666,0.2638,0.2643,0.2729,0.2737,0.2745,0.2873,0.2787,0.279,0.2791,0.295,0.2953,0.2956,0,0,0,0,0,0,0.2396,0.2407,0.2508,0.2469,0.2484,0.2555,0.2574,0.2586,0.2652,0.267,0.2683,0.2699,0.2731,0.2741,0.2816,0.2872,0.2791,0.2794,0.2947,0.2951,0.2955,0.3037,0,0,0,0,0,0,0.2391,0.2405,0.244,0.2469,0.2486,0.2564,0.2573,0.2586,0.2657,0.2666,0.2725,0.2733,0.2733,0.2813,0.2819,0.2875,0.2796,0.2943,0.2949,0.2953,0.3031,0.3044,0.3054,0,0,0,0,0,0.2386,0.2417,0.2441,0.2455,0.2523,0.2566,0.2577,0.2629,0.2659,0.2694,0.2742,0.2734,0.285,0.2817,0.2824,0.2882,0.2941,0.2947,0.2953,0.3026,0.3041,0.3054,0,0,0,0,0,0,0.2378,0.2429,0.2456,0.2504,0.2551,0.2582,0.2629,0.2659,0.2723,0.2751,0.2763,0.2775,0.2865,0.2862,0.2826,0.2945,0.2896,0.2904,0.2949,0.2964,0.2975,0.2978,0.2798,0,0,0,0,0,0.239,0.2434,0.2477,0.2524,0.2552,0.2601,0.2636,0.2672,0.272,0.2753,0.2794,0.2841,0.2885,0.2917,0.2952,0.3011,0.3015,0.3056,0.3067,0.3077,0.3087,0.3138,0.3154,0.2976,0.2976,0.2976,0,0,0.2401,0.2438,0.2465,0.2527,0.2571,0.2616,0.2628,0.2698,0.2749,0.2752,0.2852,0.2887,0.2912,0.2985,0.3025,0.2997,0.3134,0.3085,0.3093,0.3097,0.3146,0.3163,0.3178,0.298,0.2979,0.2979,0,0,0.2425,0.248,0.252,0.2564,0.264,0.2667,0.2699,0.2763,0.2816,0.2897,0.2921,0.2992,0.3057,0.3086,0.3105,0.3201,0.3195,0.3224,0.3284,0.3334,0.3349,0.3362,0.3398,0.3413,0.3227,0.3227,0.3227,0,0.2441,0.2493,0.2539,0.2587,0.2634,0.2694,0.2744,0.2798,0.2884,0.2933,0.2947,0.3076,0.31,0.3183,0.3224,0.3228,0.3253,0.3225,0.3348,0.3361,0.3373,0.3407,0.3422,0.3232,0.3231,0.3231,0.323,0,0.2475,0.254,0.2572,0.265,0.2703,0.2763,0.2832,0.2908,0.2977,0.3025,0.3146,0.3188,0.3262,0.3287,0.3288,0.3393,0.3384,0.3357,0.3307,0.3395,0.3426,0.3441,0.3239,0.3237,0.3236,0.3234,0,0,0.2447,0.2571,0.2589,0.2639,0.2747,0.2785,0.2889,0.2982,0.3061,0.3154,0.3252,0.3339,0.338,0.3406,0.3428,0.3475,0.3583,0.3465,0.3465,0.3492,0.3702,0.3491,0.3486,0.3585,0.3588,0.3591,0.3692,0,0.2466,0.2553,0.2618,0.2716,0.2764,0.286,0.2946,0.3046,0.3139,0.3249,0.3323,0.3427,0.3419,0.3481,0.3529,0.3579,0.3627,0.3558,0.362,0.3622,0.3416,0.3497,0.36,0.3703,0.3706,0.3708,0.371,0,0.2466,0.2531,0.2623,0.2753,0.2788,0.2862,0.3012,0.3098,0.3254,0.3338,0.345,0.3515,0.3631,0.3601,0.3723,0.3688,0.371,0.3728,0.3732,0.3513,0.3438,0.3596,0.3737,0.3735,0.3733,0.3731,0.3729,0,0.2393,0.253,0.2606,0.2652,0.2805,0.2884,0.2976,0.3132,0.3228,0.341,0.3503,0.3627,0.3723,0.3774,0.383,0.3799,0.3941,0.3888,0.3715,0.3701,0.3822,0.3807,0.3964,0.3964,0.3964,0.3964,0.3963,0,0.2357,0.2426,0.259,0.263,0.2743,0.2861,0.2996,0.3116,0.3294,0.3395,0.3549,0.3639,0.3778,0.3868,0.3881,0.3847,0.3984,0.3739,0.3715,0.3856,0.3844,0.3833,0.3817,0.3967,0.3966,0.3966,0.3965,0,0.2259,0.2369,0.2466,0.2644,0.2712,0.2792,0.3004,0.3083,0.3282,0.3423,0.3495,0.37,0.3807,0.3908,0.4006,0.3896,0.3894,0.3847,0.4017,0.3999,0.3607,0.3594,0.3645,0.3638,0.3633,0.3628,0.3624,0,0.221,0.2254,0.2455,0.2515,0.2608,0.2751,0.284,0.3057,0.314,0.3415,0.3456,0.366,0.3759,0.3732,0.3851,0.3867,0.382,0.379,0.3665,0.3604,0.3577,0.3572,0.3567,0.3615,0.3614,0.3612,0.3611,0,0.2114,0.221,0.2288,0.2419,0.2526,0.2626,0.2774,0.2823,0.305,0.3262,0.334,0.3404,0.3522,0.3587,0.3643,0.3638,0.3788,0.373,0.374,0.3622,0.3569,0.3546,0.3547,0.3592,0.3595,0.3596,0.3597,0,0.2048,0.2077,0.2195,0.2288,0.2414,0.2456,0.2555,0.2647,0.2766,0.3059,0.3075,0.3282,0.3478,0.3471,0.3515,0.3509,0.3441,0.3306,0.3336,0.3359,0.3218,0.3105,0.2975,0,0,0,0,0,0.1963,0.1975,0.2051,0.2135,0.2247,0.2319,0.2488,0.2585,0.2807,0.2784,0.2925,0.3014,0.3089,0.3205,0.314,0.3393,0.3458,0.3303,0.3319,0.3485,0.3507,0.3367,0,0,0,0,0,0,0.1902,0.1967,0.1992,0.1985,0.2008,0.2106,0.2199,0.2346,0.2351,0.2589,0.265,0.2832,0.2958,0.3093,0.3082,0.3117,0.3064,0.3443,0.3435,0.3472,0.3492,0.351,0.3374,0,0,0,0,0]},{"header":{"parameterUnit":"m.s-1","parameterCategory":2,"la1":30.2991,"la2":30.254,"lo1":-89.0895,"lo2":-89.0444,"dy":0.0017,"dx":0.0017,"nx":28,"ny":28,"refTime":"2025-11-30T09:00:00:Z","depth":"4","parameterNumber":3,"parameterNumberName":"V-component_of_CURRENTS"},"data":[0,0,0,0,0,0,0,0,0,0,0,0,0,0,0,0,0,0,0,0,0,0,0,0,0,0,0,0,0,0,0,0,0,0,0,0,0,0,0,0,0,0,0,0,0,0,0,0,0,0,0,0,0,0,0,0,0,0,0.014,0.014,0,0.0082,0.0082,0.0081,0.004,0.004,0.004,0.0039,-0.0054,-0.0056,-0.0058,0,0,0,0,0,0,0,0,0,0,0,0,0,0.0159,0.0159,0.014,0.014,0.0139,0.0082,0.0081,0.0081,0.004,0.004,0.004,0.0039,-0.0053,-0.0056,-0.0059,0,0,0,0,0,0,0,0,0,0,0,0,0,0.0129,0.0159,0.014,0.0113,0.0111,0.0083,0.0081,0.008,0.004,0.004,0.004,0.0039,-0.0052,-0.0056,-0.0059,-0.0076,0,0,-0.007,-0.0071,0,0,0,0,0,0,0,0,0.0131,0.0129,0.0118,0.0115,0.0112,0.007,0.0054,0.0027,0.004,0.0065,0.0039,0.0039,-0.0014,-0.0021,-0.0034,-0.0081,-0.0085,-0.007,-0.0072,-0.0074,-0.0075,0,0,0,0,0,0,0,0.0133,0.0131,0.0115,0.0117,0.0114,0.0085,0.0081,0.0048,0.0025,0.0063,0.006,0.0057,-0.0017,-0.003,-0.0036,-0.0086,-0.007,-0.0073,-0.0075,-0.0077,-0.015,-0.015,0,0,0,0,0,0,0.0148,0.0133,0.0117,0.0114,0.0123,0.0085,0.008,0.0082,0.0026,0.0018,0.0057,0.0055,-0.0024,-0.0032,-0.004,-0.0045,-0.0074,-0.0077,-0.0079,-0.0151,-0.015,-0.015,0,0,0,0,0,0,0.0148,0.0147,0.012,0.0123,0.0118,0.0086,0.0087,0.0081,0.0072,0.0022,0.0013,0.0055,-0.0024,-0.0035,-0.006,-0.005,-0.0079,-0.0082,-0.0151,-0.0151,-0.015,-0.0068,0,0,0,0,0,0,0.0149,0.0148,0.0154,0.0124,0.0118,0.0114,0.0088,0.008,0.0071,0.0068,0.0018,0.0009,-0.0025,-0.0054,-0.0064,-0.0055,-0.0085,-0.0151,-0.0151,-0.015,-0.0071,-0.0065,-0.006,0,0,0,0,0,0.015,0.0165,0.0155,0.0153,0.0128,0.0114,0.0109,0.0083,0.0071,0.0073,0.0039,0.001,-0.0059,-0.0057,-0.0068,-0.006,-0.0151,-0.0151,-0.015,-0.0073,-0.0066,-0.006,0,0,0,0,0,0,0.0177,0.0162,0.015,0.0159,0.0142,0.0109,0.0109,0.009,0.0064,0.0063,0.0013,0.0002,-0.0018,-0.0052,-0.0048,-0.0082,-0.0111,-0.0112,-0.0048,-0.0042,-0.0037,-0.0015,-0.0087,0,0,0,0,0,0.0187,0.0194,0.017,0.0178,0.0173,0.0142,0.0133,0.0117,0.0091,0.0079,0.0045,0.0006,-0.0026,-0.0042,-0.0077,-0.0093,-0.0134,-0.0097,-0.0092,-0.0087,-0.0077,-0.0133,-0.0131,-0.0149,-0.0149,-0.0149,0,0,0.0199,0.0191,0.0195,0.0184,0.0168,0.0174,0.0136,0.0132,0.0135,0.0073,0.0067,0.0024,-0.0027,-0.0045,-0.0057,-0.007,-0.0103,-0.0086,-0.0081,-0.0075,-0.0132,-0.0131,-0.0129,-0.0149,-0.0149,-0.0149,0,0,0.0232,0.0222,0.024,0.0232,0.0218,0.0201,0.0205,0.0177,0.0163,0.0149,0.0105,0.0073,0.0025,-0.0008,-0.0032,-0.0018,-0.0072,-0.0031,0.0016,-0.0038,-0.0036,-0.0036,-0.008,-0.0084,-0.0027,-0.0027,-0.0027,0,0.0247,0.0268,0.0243,0.0258,0.0262,0.022,0.0244,0.0223,0.019,0.0184,0.0159,0.0087,0.0043,0.0019,0.0024,-0.0004,-0.0042,-0.0001,-0.0029,-0.0029,-0.003,-0.0076,-0.0082,-0.0023,-0.0023,-0.0024,-0.0024,0,0.0293,0.031,0.0321,0.033,0.0329,0.0341,0.0317,0.0309,0.0285,0.0261,0.023,0.0163,0.0124,0.0099,0.0066,0.0042,0.0016,-0.0015,-0.0041,-0.0023,-0.0073,-0.008,-0.0017,-0.0018,-0.002,-0.0021,0,0,0.0327,0.0351,0.0355,0.038,0.0372,0.0382,0.0386,0.0382,0.0394,0.0338,0.034,0.027,0.0229,0.0199,0.0144,0.0095,0.0054,0.0047,0.0042,0.0012,-0.0059,-0.0069,-0.0079,0.0018,0.0017,0.0016,-0.009,0,0.0372,0.0426,0.0422,0.0477,0.0505,0.0479,0.0489,0.0477,0.0454,0.0442,0.036,0.0339,0.0268,0.0253,0.0191,0.0091,0.0038,0.0086,-0.008,-0.0085,-0.0089,-0.0087,0.0014,-0.0095,-0.0097,-0.0098,-0.0099,0,0.0419,0.0453,0.0516,0.0561,0.0572,0.0594,0.0616,0.0624,0.0588,0.0566,0.0519,0.0456,0.0382,0.0316,0.0151,0.0186,0.0076,-0.0012,-0.0019,-0.0061,-0.0109,-0.0121,-0.0113,-0.0112,-0.0111,-0.011,-0.0109,0,0.0462,0.052,0.0579,0.0593,0.063,0.0655,0.0674,0.0664,0.0693,0.0652,0.0659,0.0547,0.0503,0.0348,0.0168,0.016,-0.0021,-0.0059,-0.0175,-0.0177,-0.0172,-0.0172,-0.0178,-0.0178,-0.0178,-0.0178,-0.0178,0,0.0509,0.0559,0.0609,0.064,0.0722,0.072,0.0793,0.0789,0.0799,0.0841,0.0734,0.0727,0.0508,0.0379,0.02,-0.0003,-0.0001,-0.0163,-0.0205,-0.0135,-0.0129,-0.0177,-0.0176,-0.0182,-0.0181,-0.018,-0.0179,0,0.0545,0.0573,0.0651,0.0712,0.0746,0.0803,0.0894,0.0939,0.0935,0.0984,0.0979,0.0866,0.0694,0.0468,0.0214,0.0055,-0.0149,-0.0225,-0.012,-0.0154,-0.0278,-0.0272,-0.0361,-0.0363,-0.0364,-0.0365,-0.0365,0,0.0566,0.0609,0.0714,0.0775,0.0812,0.0903,0.0967,0.1004,0.1063,0.1068,0.1094,0.0956,0.0845,0.0495,0.0235,-0.0108,-0.0166,-0.0279,-0.0295,-0.0265,-0.0297,-0.0289,-0.0281,-0.0367,-0.0367,-0.0368,-0.0368,0,0.0608,0.0645,0.0711,0.0841,0.0929,0.1039,0.1136,0.1192,0.1229,0.1231,0.1195,0.1008,0.081,0.0514,0.0246,-0.0006,-0.0211,-0.0292,-0.0292,-0.0307,-0.0274,-0.0302,-0.0293,-0.0371,-0.0371,-0.0371,-0.037,0,0.064,0.0693,0.0784,0.0901,0.1019,0.1133,0.1185,0.125,0.1305,0.1306,0.1289,0.1066,0.0938,0.0567,0.0321,0.0071,-0.0005,-0.0103,-0.0114,-0.0113,-0.0022,0.0059,0.0033,0,0,0,0,0,0.0667,0.0732,0.084,0.0966,0.1085,0.1163,0.128,0.1318,0.1357,0.1349,0.1327,0.1142,0.0776,0.0621,0.0372,0.0274,-0.0065,-0.0031,-0.0187,-0.0392,-0.0388,-0.0325,0,0,0,0,0,0,0.0682,0.0782,0.0838,0.0998,0.1097,0.1236,0.1314,0.1346,0.1346,0.1344,0.1165,0.1068,0.0722,0.0929,0.0368,0.029,0.0151,-0.0198,-0.0204,-0.0394,-0.039,-0.0387,-0.0321,0,0,0,0,0]}]]